Location: Le Castellard
(44.1862°N, 6.1301°E)
Time: 13:04:40
(UTC+00:00)

ADEOS Rocket - Pass Details

Date: 18 January 2020
Orbit: 859 x 1306 km, 98.7° (Epoch: 27 February)

Event Time Altitude Azimuth Distance (km) Brightness Sun altitude
Rises 06:13:43 0° 179° (S) 3,457 6.2 -9.4°
Reaches altitude 10° 06:16:11 10° 185° (S) 2,502 5.4 -9.0°
Maximum altitude 06:21:30 51° 261° (W) 1,080 3.0 -8.1°
Drops below altitude 10° 06:26:54 10° 336° (NNW) 2,540 4.8 -7.2°
Sets 06:29:25 0° 342° (NNW) 3,515 5.5 -6.8°
